Time,TemperatureF,DewpointF,PressureIn,WindDirection,WindDirectionDegrees,WindSpeedMPH,WindSpeedGustMPH,Humidity,HourlyPrecipIn,Conditions,Clouds,dailyrainin,SoftwareType,DateUTC
2013-11-23 00:02:00,17.7,13.6,30.50,North,0,0.0,0.0,84,0.00,,,0.00,WUHU216HW,2013-11-23 06:02:00,
2013-11-23 00:10:00,17.7,13.6,30.50,North,0,0.0,0.0,84,0.00,,,0.00,WUHU216HW,2013-11-23 06:10:00,
2013-11-23 00:15:00,17.4,13.2,30.50,North,0,0.0,0.0,84,0.00,,,0.00,WUHU216HW,2013-11-23 06:15:00,
2013-11-23 00:20:00,17.4,13.2,30.50,North,0,0.0,0.0,84,0.00,,,0.00,WUHU216HW,2013-11-23 06:20:00,
2013-11-23 00:25:00,17.4,13.2,30.50,North,0,0.0,0.0,84,0.00,,,0.00,WUHU216HW,2013-11-23 06:25:00,
2013-11-23 00:30:00,17.4,13.2,30.49,North,0,0.0,0.0,84,0.00,,,0.00,WUHU216HW,2013-11-23 06:30:00,
2013-11-23 00:35:00,17.7,13.6,30.50,North,0,0.0,0.0,84,0.00,,,0.00,WUHU216HW,2013-11-23 06:35:00,
2013-11-23 00:40:00,17.7,13.6,30.50,North,0,0.0,0.0,84,0.00,,,0.00,WUHU216HW,2013-11-23 06:40:00,
2013-11-23 00:45:00,17.7,13.6,30.49,North,0,0.0,0.0,84,0.00,,,0.00,WUHU216HW,2013-11-23 06:45:00,
2013-11-23 00:50:00,17.9,13.5,30.50,North,0,0.0,0.0,83,0.00,,,0.00,WUHU216HW,2013-11-23 06:50:00,
2013-11-23 00:55:00,17.9,13.5,30.50,North,0,0.0,0.0,83,0.00,,,0.00,WUHU216HW,2013-11-23 06:55:00,
2013-11-23 01:00:00,17.9,13.5,30.50,North,0,0.0,0.0,83,0.00,,,0.00,WUHU216HW,2013-11-23 07:00:00,
2013-11-23 01:05:00,18.1,13.7,30.50,North,0,0.0,0.0,83,0.00,,,0.00,WUHU216HW,2013-11-23 07:05:00,
2013-11-23 01:10:00,18.3,13.9,30.50,North,0,0.0,0.0,83,0.00,,,0.00,WUHU216HW,2013-11-23 07:10:00,
2013-11-23 01:15:00,18.3,13.9,30.50,North,0,0.0,0.0,83,0.00,,,0.00,WUHU216HW,2013-11-23 07:15:00,
2013-11-23 01:20:00,18.3,13.9,30.51,North,0,0.0,0.0,83,0.00,,,0.00,WUHU216HW,2013-11-23 07:20:00,
2013-11-23 01:25:00,18.5,14.0,30.51,North,0,0.0,0.0,83,0.00,,,0.00,WUHU216HW,2013-11-23 07:25:00,
2013-11-23 01:30:00,18.5,14.0,30.51,North,0,0.0,0.0,83,0.00,,,0.00,WUHU216HW,2013-11-23 07:30:00,
2013-11-23 01:35:00,18.5,14.0,30.52,North,0,0.0,0.0,83,0.00,,,0.00,WUHU216HW,2013-11-23 07:35:00,
2013-11-23 01:40:00,18.6,14.0,30.51,North,0,0.0,0.0,82,0.00,,,0.00,WUHU216HW,2013-11-23 07:40:00,
2013-11-23 01:45:00,18.6,14.0,30.52,North,0,0.0,0.0,82,0.00,,,0.00,WUHU216HW,2013-11-23 07:45:00,
2013-11-23 01:50:00,18.8,14.1,30.52,North,0,0.0,0.0,82,0.00,,,0.00,WUHU216HW,2013-11-23 07:50:00,
2013-11-23 01:55:00,18.8,14.1,30.52,North,0,0.0,0.0,82,0.00,,,0.00,WUHU216HW,2013-11-23 07:55:00,
2013-11-23 02:00:00,18.8,14.1,30.53,North,0,0.0,0.0,82,0.00,,,0.00,WUHU216HW,2013-11-23 08:00:00,
2013-11-23 02:05:00,19.0,14.0,30.53,North,0,0.0,0.0,81,0.00,,,0.00,WUHU216HW,2013-11-23 08:05:00,
2013-11-23 02:10:00,19.0,14.0,30.53,North,0,0.0,0.0,81,0.00,,,0.00,WUHU216HW,2013-11-23 08:10:00,
2013-11-23 02:15:00,19.2,14.2,30.53,North,0,0.0,0.0,81,0.00,,,0.00,WUHU216HW,2013-11-23 08:15:00,
2013-11-23 02:20:00,19.2,14.2,30.53,North,0,0.0,0.0,81,0.00,,,0.00,WUHU216HW,2013-11-23 08:20:00,
2013-11-23 02:25:00,19.0,14.0,30.53,North,0,0.0,0.0,81,0.00,,,0.00,WUHU216HW,2013-11-23 08:25:00,
2013-11-23 02:30:00,19.0,13.8,30.53,North,0,0.0,0.0,80,0.00,,,0.00,WUHU216HW,2013-11-23 08:30:00,
2013-11-23 02:35:00,19.2,14.0,30.53,North,0,0.0,0.0,80,0.00,,,0.00,WUHU216HW,2013-11-23 08:35:00,
2013-11-23 02:40:00,19.2,14.0,30.53,North,0,0.0,0.0,80,0.00,,,0.00,WUHU216HW,2013-11-23 08:40:00,
2013-11-23 02:45:00,19.2,14.0,30.53,North,0,0.0,0.0,80,0.00,,,0.00,WUHU216HW,2013-11-23 08:45:00,
2013-11-23 02:50:00,19.0,13.8,30.53,North,0,0.0,0.0,80,0.00,,,0.00,WUHU216HW,2013-11-23 08:50:00,
2013-11-23 02:55:00,19.0,13.8,30.53,North,0,0.0,0.0,80,0.00,,,0.00,WUHU216HW,2013-11-23 08:55:00,
2013-11-23 03:00:00,19.0,13.8,30.53,North,0,0.0,0.0,80,0.00,,,0.00,WUHU216HW,2013-11-23 09:00:00,
2013-11-23 03:05:00,18.8,13.3,30.53,North,0,0.0,0.0,79,0.00,,,0.00,WUHU216HW,2013-11-23 09:05:00,
2013-11-23 03:10:00,18.8,13.3,30.53,North,0,0.0,0.0,79,0.00,,,0.00,WUHU216HW,2013-11-23 09:10:00,
2013-11-23 03:15:00,18.8,13.6,30.54,North,0,0.0,0.0,80,0.00,,,0.00,WUHU216HW,2013-11-23 09:15:00,
2013-11-23 03:20:00,18.8,13.6,30.53,North,0,0.0,0.0,80,0.00,,,0.00,WUHU216HW,2013-11-23 09:20:00,
2013-11-23 03:26:00,18.8,13.6,30.54,North,0,0.0,0.0,80,0.00,,,0.00,WUHU216HW,2013-11-23 09:26:00,
2013-11-23 03:31:00,18.8,13.6,30.53,North,0,0.0,0.0,80,0.00,,,0.00,WUHU216HW,2013-11-23 09:31:00,
2013-11-23 03:36:00,19.0,13.8,30.53,North,0,0.0,0.0,80,0.00,,,0.00,WUHU216HW,2013-11-23 09:36:00,
2013-11-23 03:41:00,19.2,14.0,30.53,North,0,0.0,0.0,80,0.00,,,0.00,WUHU216HW,2013-11-23 09:41:00,
2013-11-23 03:46:00,19.2,14.0,30.53,North,0,0.0,0.0,80,0.00,,,0.00,WUHU216HW,2013-11-23 09:46:00,
2013-11-23 03:51:00,19.4,14.1,30.54,North,0,0.0,0.0,80,0.00,,,0.00,WUHU216HW,2013-11-23 09:51:00,
2013-11-23 03:56:00,19.5,14.3,30.53,North,0,0.0,0.0,80,0.00,,,0.00,WUHU216HW,2013-11-23 09:56:00,
2013-11-23 04:01:00,19.5,14.3,30.54,North,0,0.0,0.0,80,0.00,,,0.00,WUHU216HW,2013-11-23 10:01:00,
2013-11-23 04:06:00,19.5,14.3,30.54,North,0,0.0,0.0,80,0.00,,,0.00,WUHU216HW,2013-11-23 10:06:00,
2013-11-23 04:11:00,19.5,14.3,30.54,North,0,0.0,0.0,80,0.00,,,0.00,WUHU216HW,2013-11-23 10:11:00,
2013-11-23 04:16:00,19.5,14.3,30.55,North,0,0.0,0.0,80,0.00,,,0.00,WUHU216HW,2013-11-23 10:16:00,
2013-11-23 04:21:00,19.4,14.1,30.55,North,0,0.0,0.0,80,0.00,,,0.00,WUHU216HW,2013-11-23 10:21:00,
2013-11-23 04:26:00,19.4,14.1,30.55,North,0,0.0,0.0,80,0.00,,,0.00,WUHU216HW,2013-11-23 10:26:00,
2013-11-23 04:31:00,19.2,14.0,30.55,North,0,0.0,0.0,80,0.00,,,0.00,WUHU216HW,2013-11-23 10:31:00,
2013-11-23 04:36:00,19.2,13.6,30.55,North,0,0.0,0.0,79,0.00,,,0.00,WUHU216HW,2013-11-23 10:36:00,
2013-11-23 04:41:00,19.2,13.6,30.55,North,0,0.0,0.0,79,0.00,,,0.00,WUHU216HW,2013-11-23 10:41:00,
2013-11-23 04:46:00,19.2,13.6,30.55,North,0,0.0,0.0,79,0.00,,,0.00,WUHU216HW,2013-11-23 10:46:00,
2013-11-23 04:51:00,19.0,13.5,30.55,North,0,0.0,0.0,79,0.00,,,0.00,WUHU216HW,2013-11-23 10:51:00,
2013-11-23 04:56:00,19.0,13.5,30.56,North,0,0.0,0.0,79,0.00,,,0.00,WUHU216HW,2013-11-23 10:56:00,
2013-11-23 05:01:00,18.8,13.0,30.56,North,0,0.0,0.0,78,0.00,,,0.00,WUHU216HW,2013-11-23 11:01:00,
2013-11-23 05:06:00,18.8,13.0,30.56,North,0,0.0,0.0,78,0.00,,,0.00,WUHU216HW,2013-11-23 11:06:00,
2013-11-23 05:11:00,18.6,12.8,30.56,North,0,0.0,0.0,78,0.00,,,0.00,WUHU216HW,2013-11-23 11:11:00,
2013-11-23 05:16:00,18.6,12.8,30.56,North,0,0.0,0.0,78,0.00,,,0.00,WUHU216HW,2013-11-23 11:16:00,
2013-11-23 05:21:00,18.5,12.6,30.56,North,0,0.0,0.0,78,0.00,,,0.00,WUHU216HW,2013-11-23 11:21:00,
2013-11-23 05:26:00,18.5,12.3,30.57,North,0,0.0,0.0,77,0.00,,,0.00,WUHU216HW,2013-11-23 11:26:00,
2013-11-23 05:31:00,18.5,12.3,30.57,North,0,0.0,0.0,77,0.00,,,0.00,WUHU216HW,2013-11-23 11:31:00,
2013-11-23 05:36:00,18.3,12.2,30.57,North,0,0.0,0.0,77,0.00,,,0.00,WUHU216HW,2013-11-23 11:36:00,
2013-11-23 05:41:00,18.3,12.2,30.57,North,0,0.0,0.0,77,0.00,,,0.00,WUHU216HW,2013-11-23 11:41:00,
2013-11-23 05:46:00,18.1,12.0,30.58,North,0,0.0,0.0,77,0.00,,,0.00,WUHU216HW,2013-11-23 11:46:00,
2013-11-23 05:51:00,17.9,11.8,30.58,North,0,0.0,0.0,77,0.00,,,0.00,WUHU216HW,2013-11-23 11:51:00,
2013-11-23 05:56:00,17.7,11.6,30.58,North,0,0.0,0.0,77,0.00,,,0.00,WUHU216HW,2013-11-23 11:56:00,
2013-11-23 06:01:00,17.7,11.6,30.58,North,0,0.0,0.0,77,0.00,,,0.00,WUHU216HW,2013-11-23 12:01:00,
2013-11-23 06:06:00,17.7,11.3,30.58,North,0,0.0,0.0,76,0.00,,,0.00,WUHU216HW,2013-11-23 12:06:00,
2013-11-23 06:11:00,17.6,11.2,30.59,North,0,0.0,0.0,76,0.00,,,0.00,WUHU216HW,2013-11-23 12:11:00,
2013-11-23 06:16:00,17.4,11.0,30.59,North,0,0.0,0.0,76,0.00,,,0.00,WUHU216HW,2013-11-23 12:16:00,
2013-11-23 06:21:00,17.4,11.0,30.59,North,0,0.0,0.0,76,0.00,,,0.00,WUHU216HW,2013-11-23 12:21:00,
2013-11-23 06:26:00,17.2,10.5,30.59,North,0,0.0,0.0,75,0.00,,,0.00,WUHU216HW,2013-11-23 12:26:00,
2013-11-23 06:31:00,16.8,10.2,30.61,North,0,0.0,0.0,75,0.00,,,0.00,WUHU216HW,2013-11-23 12:31:00,
2013-11-23 06:36:00,16.8,10.2,30.60,North,0,0.0,0.0,75,0.00,,,0.00,WUHU216HW,2013-11-23 12:36:00,
2013-11-23 06:41:00,16.5,9.9,30.61,North,0,0.0,0.0,75,0.00,,,0.00,WUHU216HW,2013-11-23 12:41:00,
2013-11-23 06:46:00,16.5,9.6,30.61,North,0,0.0,0.0,74,0.00,,,0.00,WUHU216HW,2013-11-23 12:46:00,
2013-11-23 06:51:00,16.1,9.2,30.62,North,0,0.0,0.0,74,0.00,,,0.00,WUHU216HW,2013-11-23 12:51:00,
2013-11-23 06:56:00,15.6,8.4,30.62,North,0,0.0,0.0,73,0.00,,,0.00,WUHU216HW,2013-11-23 12:56:00,
2013-11-23 07:01:00,15.6,8.1,30.62,North,0,0.0,0.0,72,0.00,,,0.00,WUHU216HW,2013-11-23 13:01:00,
2013-11-23 07:06:00,15.4,7.9,30.62,North,0,0.0,0.0,72,0.00,,,0.00,WUHU216HW,2013-11-23 13:06:00,
2013-11-23 07:11:00,15.0,7.6,30.63,North,0,0.0,0.0,72,0.00,,,0.00,WUHU216HW,2013-11-23 13:11:00,
2013-11-23 07:16:00,14.9,7.4,30.63,North,0,0.0,0.0,72,0.00,,,0.00,WUHU216HW,2013-11-23 13:16:00,
2013-11-23 07:21:00,14.7,7.3,30.64,North,0,0.0,0.0,72,0.00,,,0.00,WUHU216HW,2013-11-23 13:21:00,
2013-11-23 07:26:00,14.5,7.4,30.64,North,0,0.0,0.0,73,0.00,,,0.00,WUHU216HW,2013-11-23 13:26:00,
2013-11-23 07:31:00,14.5,7.4,30.65,North,0,0.0,0.0,73,0.00,,,0.00,WUHU216HW,2013-11-23 13:31:00,
2013-11-23 07:36:00,14.3,7.2,30.64,North,0,0.0,0.0,73,0.00,,,0.00,WUHU216HW,2013-11-23 13:36:00,
2013-11-23 07:41:00,14.3,7.2,30.65,North,0,0.0,0.0,73,0.00,,,0.00,WUHU216HW,2013-11-23 13:41:00,
2013-11-23 07:46:00,14.3,7.2,30.66,North,0,0.0,0.0,73,0.00,,,0.00,WUHU216HW,2013-11-23 13:46:00,
2013-11-23 07:51:00,14.1,7.1,30.66,North,0,0.0,0.0,73,0.00,,,0.00,WUHU216HW,2013-11-23 13:51:00,
2013-11-23 07:56:00,14.1,7.1,30.66,North,0,0.0,0.0,73,0.00,,,0.00,WUHU216HW,2013-11-23 13:56:00,
2013-11-23 08:01:00,14.1,7.1,30.66,North,0,0.0,0.0,73,0.02,,,0.03,WUHU216HW,2013-11-23 14:01:00,
2013-11-23 08:06:00,14.1,7.1,30.67,North,0,0.0,0.0,73,0.02,,,0.03,WUHU216HW,2013-11-23 14:06:00,
2013-11-23 08:11:00,14.1,7.1,30.66,North,0,0.0,0.0,73,0.02,,,0.03,WUHU216HW,2013-11-23 14:11:00,
2013-11-23 08:16:00,14.1,7.1,30.66,North,0,0.0,0.0,73,0.02,,,0.03,WUHU216HW,2013-11-23 14:16:00,
2013-11-23 08:21:00,14.3,7.2,30.67,North,0,0.0,0.0,73,0.02,,,0.03,WUHU216HW,2013-11-23 14:21:00,
2013-11-23 08:26:00,14.5,7.4,30.67,North,0,0.0,0.0,73,0.02,,,0.03,WUHU216HW,2013-11-23 14:26:00,
2013-11-23 08:31:00,14.5,7.4,30.67,North,0,0.0,0.0,73,0.02,,,0.03,WUHU216HW,2013-11-23 14:31:00,
2013-11-23 08:36:00,14.7,7.6,30.67,North,0,0.0,0.0,73,0.02,,,0.03,WUHU216HW,2013-11-23 14:36:00,
2013-11-23 08:41:00,14.7,7.6,30.67,North,0,0.0,0.0,73,0.02,,,0.03,WUHU216HW,2013-11-23 14:41:00,
2013-11-23 08:46:00,14.7,7.3,30.68,North,0,0.0,0.0,72,0.02,,,0.03,WUHU216HW,2013-11-23 14:46:00,
2013-11-23 08:51:00,14.7,7.3,30.67,North,0,0.0,0.0,72,0.02,,,0.03,WUHU216HW,2013-11-23 14:51:00,
2013-11-23 08:56:00,14.5,7.1,30.68,North,0,0.0,0.0,72,0.00,,,0.03,WUHU216HW,2013-11-23 14:56:00,
2013-11-23 09:01:00,14.5,7.1,30.68,North,0,0.0,0.0,72,0.00,,,0.03,WUHU216HW,2013-11-23 15:01:00,
2013-11-23 09:06:00,14.7,7.3,30.68,North,0,0.0,0.0,72,0.00,,,0.03,WUHU216HW,2013-11-23 15:06:00,
2013-11-23 09:11:00,14.7,7.3,30.68,North,0,0.0,0.0,72,0.00,,,0.03,WUHU216HW,2013-11-23 15:11:00,
2013-11-23 09:16:00,14.7,7.3,30.69,North,0,0.0,0.0,72,0.00,,,0.03,WUHU216HW,2013-11-23 15:16:00,
2013-11-23 09:21:00,14.7,7.3,30.69,North,0,0.0,0.0,72,0.00,,,0.03,WUHU216HW,2013-11-23 15:21:00,
2013-11-23 09:26:00,14.7,7.3,30.69,North,0,0.0,0.0,72,0.00,,,0.03,WUHU216HW,2013-11-23 15:26:00,
2013-11-23 09:31:00,14.7,7.0,30.69,North,0,0.0,0.0,71,0.00,,,0.03,WUHU216HW,2013-11-23 15:31:00,
2013-11-23 09:36:00,14.5,6.8,30.69,North,0,0.0,0.0,71,0.00,,,0.03,WUHU216HW,2013-11-23 15:36:00,
2013-11-23 09:41:00,14.9,7.1,30.69,North,0,0.0,0.0,71,0.00,,,0.03,WUHU216HW,2013-11-23 15:41:00,
2013-11-23 09:46:00,14.9,7.1,30.69,North,0,0.0,0.0,71,0.00,,,0.03,WUHU216HW,2013-11-23 15:46:00,
2013-11-23 09:51:00,15.0,7.0,30.68,North,0,0.0,0.0,70,0.00,,,0.03,WUHU216HW,2013-11-23 15:51:00,
2013-11-23 09:56:00,15.0,7.0,30.69,North,0,0.0,0.0,70,0.00,,,0.03,WUHU216HW,2013-11-23 15:56:00,
2013-11-23 10:01:00,15.2,7.2,30.69,North,0,0.0,0.0,70,0.00,,,0.03,WUHU216HW,2013-11-23 16:01:00,
2013-11-23 10:06:00,15.4,7.3,30.69,North,0,0.0,0.0,70,0.00,,,0.03,WUHU216HW,2013-11-23 16:06:00,
2013-11-23 10:11:00,15.2,7.2,30.69,North,0,0.0,0.0,70,0.00,,,0.03,WUHU216HW,2013-11-23 16:11:00,
2013-11-23 10:16:00,15.4,7.3,30.69,North,0,0.0,0.0,70,0.00,,,0.03,WUHU216HW,2013-11-23 16:16:00,
2013-11-23 10:21:00,15.6,7.5,30.69,North,0,0.0,0.0,70,0.00,,,0.03,WUHU216HW,2013-11-23 16:21:00,
2013-11-23 10:26:00,15.6,7.5,30.68,North,0,0.0,0.0,70,0.00,,,0.03,WUHU216HW,2013-11-23 16:26:00,
2013-11-23 10:31:00,15.9,7.8,30.68,North,0,0.0,0.0,70,0.00,,,0.03,WUHU216HW,2013-11-23 16:31:00,
2013-11-23 10:36:00,16.1,8.0,30.68,North,0,0.0,0.0,70,0.00,,,0.03,WUHU216HW,2013-11-23 16:36:00,
2013-11-23 10:41:00,16.3,8.2,30.68,North,0,0.0,0.0,70,0.00,,,0.03,WUHU216HW,2013-11-23 16:41:00,
2013-11-23 10:46:00,16.5,8.0,30.68,North,0,0.0,0.0,69,0.00,,,0.03,WUHU216HW,2013-11-23 16:46:00,
2013-11-23 10:51:00,16.7,8.2,30.69,North,0,0.0,0.0,69,0.00,,,0.03,WUHU216HW,2013-11-23 16:51:00,
2013-11-23 10:56:00,16.8,8.4,30.69,North,0,0.0,0.0,69,0.00,,,0.03,WUHU216HW,2013-11-23 16:56:00,
2013-11-23 11:01:00,17.2,8.7,30.70,North,0,0.0,0.0,69,0.00,,,0.03,WUHU216HW,2013-11-23 17:01:00,
2013-11-23 11:06:00,17.7,9.6,30.69,North,0,0.0,0.0,70,0.00,,,0.03,WUHU216HW,2013-11-23 17:06:00,
2013-11-23 11:11:00,17.7,8.9,30.69,North,0,0.0,0.0,69,0.00,,,0.03,WUHU216HW,2013-11-23 17:11:00,
2013-11-23 11:16:00,17.9,9.1,30.69,North,0,0.0,0.0,68,0.00,,,0.03,WUHU216HW,2013-11-23 17:16:00,
2013-11-23 11:21:00,18.1,9.3,30.69,North,0,0.0,0.0,68,0.00,,,0.03,WUHU216HW,2013-11-23 17:21:00,
2013-11-23 11:26:00,18.5,9.6,30.70,North,0,0.0,0.0,68,0.00,,,0.03,WUHU216HW,2013-11-23 17:26:00,
2013-11-23 11:31:00,18.3,9.1,30.70,North,0,0.0,0.0,67,0.00,,,0.03,WUHU216HW,2013-11-23 17:31:00,
2013-11-23 11:36:00,18.3,9.1,30.69,North,0,0.0,0.0,67,0.00,,,0.03,WUHU216HW,2013-11-23 17:36:00,
2013-11-23 11:41:00,18.6,9.6,30.69,North,0,0.0,0.0,67,0.00,,,0.03,WUHU216HW,2013-11-23 17:41:00,
2013-11-23 11:46:00,19.2,9.9,30.69,North,0,0.0,0.0,67,0.00,,,0.03,WUHU216HW,2013-11-23 17:46:00,
2013-11-23 11:51:00,19.0,9.4,30.69,North,0,0.0,0.0,66,0.00,,,0.03,WUHU216HW,2013-11-23 17:51:00,
2013-11-23 11:56:00,19.0,9.4,30.69,NNW,338,0.0,0.0,66,0.00,,,0.03,WUHU216HW,2013-11-23 17:56:00,
2013-11-23 12:01:00,19.2,9.5,30.69,NW,315,0.0,0.0,66,0.00,,,0.03,WUHU216HW,2013-11-23 18:01:00,
2013-11-23 12:06:00,19.0,9.0,30.69,North,0,0.0,0.0,65,0.00,,,0.03,WUHU216HW,2013-11-23 18:06:00,
2013-11-23 12:11:00,18.8,8.9,30.69,North,0,0.0,0.0,65,0.00,,,0.03,WUHU216HW,2013-11-23 18:11:00,
2013-11-23 12:16:00,18.6,8.4,30.69,NNW,338,0.0,0.0,64,0.00,,,0.03,WUHU216HW,2013-11-23 18:16:00,
2013-11-23 12:21:00,18.6,8.7,30.69,NNW,338,0.0,0.0,65,0.00,,,0.03,WUHU216HW,2013-11-23 18:21:00,
2013-11-23 12:26:00,19.2,9.2,30.69,NNW,338,0.0,0.0,65,0.00,,,0.03,WUHU216HW,2013-11-23 18:26:00,
2013-11-23 12:31:00,19.2,9.2,30.69,NW,315,0.0,0.0,65,0.00,,,0.03,WUHU216HW,2013-11-23 18:31:00,
2013-11-23 12:36:00,19.4,9.4,30.69,NW,315,0.0,0.0,65,0.00,,,0.03,WUHU216HW,2013-11-23 18:36:00,
2013-11-23 12:41:00,19.5,9.2,30.69,NW,315,0.0,0.0,64,0.00,,,0.03,WUHU216HW,2013-11-23 18:41:00,
2013-11-23 12:46:00,19.2,8.9,30.69,NNW,338,0.0,0.0,64,0.00,,,0.03,WUHU216HW,2013-11-23 18:46:00,
2013-11-23 12:51:00,19.2,8.9,30.69,NNW,338,0.0,0.0,64,0.00,,,0.03,WUHU216HW,2013-11-23 18:51:00,
2013-11-23 12:56:00,19.2,8.9,30.69,North,0,0.0,0.0,64,0.00,,,0.03,WUHU216HW,2013-11-23 18:56:00,
2013-11-23 13:01:00,19.2,8.9,30.69,NNW,338,0.0,0.0,64,0.00,,,0.03,WUHU216HW,2013-11-23 19:01:00,
2013-11-23 13:06:00,19.2,8.9,30.69,NNW,338,0.0,0.0,64,0.00,,,0.03,WUHU216HW,2013-11-23 19:06:00,
2013-11-23 13:12:00,19.0,9.2,30.69,NNW,338,0.0,0.0,64,0.00,,,0.03,WUHU216HW,2013-11-23 19:12:00,
2013-11-23 13:17:00,19.5,8.9,30.69,NNW,338,0.0,0.0,63,0.00,,,0.03,WUHU216HW,2013-11-23 19:17:00,
2013-11-23 13:22:00,19.5,9.2,30.69,NNW,338,0.0,0.0,64,0.00,,,0.03,WUHU216HW,2013-11-23 19:22:00,
2013-11-23 13:27:00,19.9,9.2,30.69,NNW,338,0.0,0.0,64,0.00,,,0.03,WUHU216HW,2013-11-23 19:27:00,
2013-11-23 13:32:00,20.1,9.4,30.68,NW,315,0.0,0.0,63,0.00,,,0.03,WUHU216HW,2013-11-23 19:32:00,
2013-11-23 13:37:00,20.1,9.7,30.68,WNW,293,0.0,0.0,64,0.00,,,0.03,WUHU216HW,2013-11-23 19:37:00,
2013-11-23 13:42:00,20.1,9.4,30.68,NNW,338,0.0,0.0,63,0.00,,,0.03,WUHU216HW,2013-11-23 19:42:00,
2013-11-23 13:47:00,19.9,8.9,30.68,NNW,338,0.0,0.0,62,0.00,,,0.03,WUHU216HW,2013-11-23 19:47:00,
2013-11-23 13:52:00,20.3,9.1,30.67,NNW,338,0.0,0.0,63,0.00,,,0.03,WUHU216HW,2013-11-23 19:52:00,
2013-11-23 13:57:00,19.9,8.9,30.68,North,0,0.0,0.0,62,0.00,,,0.03,WUHU216HW,2013-11-23 19:57:00,
2013-11-23 14:02:00,20.1,9.4,30.68,NNW,338,0.0,0.0,63,0.00,,,0.03,WUHU216HW,2013-11-23 20:02:00,
2013-11-23 14:07:00,19.9,8.9,30.68,North,0,0.0,0.0,62,0.00,,,0.03,WUHU216HW,2013-11-23 20:07:00,
2013-11-23 14:12:00,19.5,8.5,30.68,North,0,0.0,0.0,62,0.00,,,0.03,WUHU216HW,2013-11-23 20:12:00,
2013-11-23 14:17:00,19.5,8.5,30.68,NW,315,0.0,0.0,62,0.00,,,0.03,WUHU216HW,2013-11-23 20:17:00,
2013-11-23 14:33:00,20.1,9.1,30.69,NNE,23,0.0,0.0,62,0.00,,,0.03,WUHU216HW,2013-11-23 20:33:00,
2013-11-23 14:38:00,19.9,8.9,30.68,NW,315,0.0,0.0,62,0.00,,,0.03,WUHU216HW,2013-11-23 20:38:00,
2013-11-23 14:43:00,19.9,8.9,30.67,West,270,0.0,0.0,62,0.00,,,0.03,WUHU216HW,2013-11-23 20:43:00,
2013-11-23 14:48:00,20.1,9.1,30.67,NW,315,0.0,0.0,62,0.00,,,0.03,WUHU216HW,2013-11-23 20:48:00,
2013-11-23 14:53:00,20.1,9.1,30.68,North,0,0.0,0.0,62,0.00,,,0.03,WUHU216HW,2013-11-23 20:53:00,
2013-11-23 14:58:00,19.9,8.9,30.67,NW,315,0.0,0.0,62,0.00,,,0.03,WUHU216HW,2013-11-23 20:58:00,
2013-11-23 15:03:00,19.9,8.5,30.68,NW,315,0.0,0.0,61,0.00,,,0.03,WUHU216HW,2013-11-23 21:03:00,
2013-11-23 15:08:00,19.7,8.4,30.68,NNW,338,0.0,0.0,61,0.00,,,0.03,WUHU216HW,2013-11-23 21:08:00,
2013-11-23 15:13:00,19.9,8.5,30.67,NNW,338,0.0,0.0,61,0.00,,,0.03,WUHU216HW,2013-11-23 21:13:00,
2013-11-23 15:18:00,19.7,8.4,30.67,NW,315,0.0,0.0,61,0.00,,,0.03,WUHU216HW,2013-11-23 21:18:00,
2013-11-23 15:23:00,19.5,7.8,30.67,NNW,338,0.0,0.0,60,0.00,,,0.03,WUHU216HW,2013-11-23 21:23:00,
2013-11-23 15:28:00,19.4,7.7,30.68,NNW,338,0.0,0.0,60,0.00,,,0.03,WUHU216HW,2013-11-23 21:28:00,
2013-11-23 15:33:00,19.5,8.2,30.67,NNW,338,0.0,0.0,61,0.00,,,0.03,WUHU216HW,2013-11-23 21:33:00,
2013-11-23 15:38:00,19.5,8.2,30.67,NNW,338,0.0,0.0,61,0.00,,,0.03,WUHU216HW,2013-11-23 21:38:00,
2013-11-23 15:43:00,19.5,7.8,30.67,WNW,293,0.0,0.0,60,0.00,,,0.03,WUHU216HW,2013-11-23 21:43:00,
2013-11-23 15:48:00,19.2,7.5,30.68,WNW,293,0.0,0.0,60,0.00,,,0.03,WUHU216HW,2013-11-23 21:48:00,
2013-11-23 15:53:00,19.0,7.3,30.68,West,270,0.0,0.0,60,0.00,,,0.03,WUHU216HW,2013-11-23 21:53:00,
2013-11-23 15:58:00,19.0,7.3,30.68,NNW,338,0.0,0.0,60,0.00,,,0.03,WUHU216HW,2013-11-23 21:58:00,
2013-11-23 16:03:00,18.6,7.3,30.67,North,0,0.0,0.0,61,0.00,,,0.03,WUHU216HW,2013-11-23 22:03:00,
2013-11-23 16:08:00,18.5,7.5,30.68,NW,315,0.0,0.0,62,0.00,,,0.03,WUHU216HW,2013-11-23 22:08:00,
2013-11-23 16:13:00,18.3,7.4,30.68,NNW,338,0.0,0.0,62,0.00,,,0.03,WUHU216HW,2013-11-23 22:13:00,
2013-11-23 16:18:00,18.1,7.2,30.69,NW,315,0.0,0.0,62,0.00,,,0.03,WUHU216HW,2013-11-23 22:18:00,
2013-11-23 16:23:00,17.9,7.4,30.69,NW,315,0.0,0.0,63,0.00,,,0.03,WUHU216HW,2013-11-23 22:23:00,
2013-11-23 16:28:00,17.4,7.2,30.69,NNW,338,0.0,0.0,63,0.00,,,0.03,WUHU216HW,2013-11-23 22:28:00,
2013-11-23 16:33:00,17.4,6.9,30.69,North,0,0.0,0.0,63,0.00,,,0.03,WUHU216HW,2013-11-23 22:33:00,
2013-11-23 16:38:00,17.2,6.7,30.69,NNW,338,0.0,0.0,63,0.00,,,0.03,WUHU216HW,2013-11-23 22:38:00,
2013-11-23 16:43:00,17.2,7.0,30.70,North,0,0.0,0.0,64,0.00,,,0.03,WUHU216HW,2013-11-23 22:43:00,
2013-11-23 16:48:00,16.8,6.7,30.70,North,0,0.0,0.0,64,0.00,,,0.03,WUHU216HW,2013-11-23 22:48:00,
2013-11-23 16:53:00,16.5,6.7,30.71,NNW,338,0.0,0.0,65,0.00,,,0.03,WUHU216HW,2013-11-23 22:53:00,
2013-11-23 16:58:00,16.3,6.5,30.71,WNW,293,0.0,0.0,65,0.00,,,0.03,WUHU216HW,2013-11-23 22:58:00,
2013-11-23 17:03:00,16.1,6.3,30.71,North,0,0.0,0.0,65,0.00,,,0.03,WUHU216HW,2013-11-23 23:03:00,
2013-11-23 17:08:00,15.9,6.1,30.70,NNW,338,0.0,0.0,65,0.00,,,0.03,WUHU216HW,2013-11-23 23:08:00,
2013-11-23 17:09:00,15.9,6.1,30.70,NNW,338,0.0,0.0,65,0.00,,,0.03,WUHU216HW,2013-11-23 23:09:00,
2013-11-23 17:14:00,15.8,6.3,30.70,NNW,338,0.0,0.0,66,0.00,,,0.03,WUHU216HW,2013-11-23 23:14:00,
2013-11-23 17:19:00,15.6,6.1,30.70,North,0,0.0,0.0,66,0.00,,,0.03,WUHU216HW,2013-11-23 23:19:00,
2013-11-23 17:24:00,15.6,6.5,30.70,WNW,293,0.0,0.0,67,0.00,,,0.03,WUHU216HW,2013-11-23 23:24:00,
2013-11-23 17:29:00,15.6,6.5,30.70,NNW,338,0.0,0.0,67,0.00,,,0.03,WUHU216HW,2013-11-23 23:29:00,
2013-11-23 17:34:00,15.4,6.3,30.70,NNW,338,0.0,0.0,67,0.00,,,0.03,WUHU216HW,2013-11-23 23:34:00,
2013-11-23 17:39:00,15.0,6.0,30.70,North,0,0.0,0.0,67,0.00,,,0.03,WUHU216HW,2013-11-23 23:39:00,
2013-11-23 17:44:00,14.9,6.2,30.71,NNW,338,0.0,0.0,68,0.00,,,0.03,WUHU216HW,2013-11-23 23:44:00,
2013-11-23 17:49:00,14.7,6.0,30.71,NNW,338,0.0,0.0,68,0.00,,,0.03,WUHU216HW,2013-11-23 23:49:00,
2013-11-23 17:54:00,14.7,6.0,30.71,West,270,0.0,0.0,68,0.00,,,0.03,WUHU216HW,2013-11-23 23:54:00,
2013-11-23 17:59:00,14.5,5.8,30.71,NNW,338,0.0,0.0,68,0.00,,,0.03,WUHU216HW,2013-11-23 23:59:00,
2013-11-23 18:04:00,14.5,5.8,30.71,North,0,0.0,0.0,68,0.00,,,0.03,WUHU216HW,2013-11-24 00:04:00,
2013-11-23 18:09:00,14.3,5.7,30.71,NW,315,0.0,0.0,68,0.00,,,0.03,WUHU216HW,2013-11-24 00:09:00,
2013-11-23 18:14:00,14.1,5.9,30.71,WNW,293,0.0,0.0,69,0.00,,,0.03,WUHU216HW,2013-11-24 00:14:00,
2013-11-23 18:19:00,14.1,5.9,30.71,NNW,338,0.0,0.0,69,0.00,,,0.03,WUHU216HW,2013-11-24 00:19:00,
2013-11-23 18:24:00,14.1,5.9,30.71,NNW,338,0.0,0.0,69,0.00,,,0.03,WUHU216HW,2013-11-24 00:24:00,
2013-11-23 18:29:00,13.8,5.5,30.70,NW,315,0.0,0.0,69,0.00,,,0.03,WUHU216HW,2013-11-24 00:29:00,
2013-11-23 18:34:00,13.8,5.5,30.70,NNW,338,0.0,0.0,69,0.00,,,0.03,WUHU216HW,2013-11-24 00:34:00,
2013-11-23 18:39:00,13.6,5.7,30.70,NNW,338,0.0,0.0,70,0.00,,,0.03,WUHU216HW,2013-11-24 00:39:00,
2013-11-23 18:44:00,13.6,5.7,30.70,NW,315,0.0,0.0,70,0.00,,,0.03,WUHU216HW,2013-11-24 00:44:00,
2013-11-23 18:49:00,13.2,5.3,30.71,NNW,338,0.0,0.0,70,0.00,,,0.03,WUHU216HW,2013-11-24 00:49:00,
2013-11-23 18:54:00,13.2,5.3,30.71,WNW,293,0.0,0.0,70,0.00,,,0.03,WUHU216HW,2013-11-24 00:54:00,
2013-11-23 18:59:00,13.2,5.3,30.71,WNW,293,0.0,0.0,70,0.00,,,0.03,WUHU216HW,2013-11-24 00:59:00,
2013-11-23 19:04:00,13.2,5.6,30.70,NNW,338,0.0,0.0,71,0.00,,,0.03,WUHU216HW,2013-11-24 01:04:00,
2013-11-23 19:09:00,13.2,5.6,30.71,NW,315,0.0,0.0,71,0.00,,,0.03,WUHU216HW,2013-11-24 01:09:00,
2013-11-23 19:14:00,13.2,5.6,30.71,NW,315,0.0,0.0,71,0.00,,,0.03,WUHU216HW,2013-11-24 01:14:00,
2013-11-23 19:19:00,13.1,5.4,30.71,NNW,338,0.0,0.0,71,0.00,,,0.03,WUHU216HW,2013-11-24 01:19:00,
2013-11-23 19:24:00,13.1,5.4,30.71,WNW,293,0.0,0.0,71,0.00,,,0.03,WUHU216HW,2013-11-24 01:24:00,
2013-11-23 19:29:00,12.9,5.2,30.71,NW,315,0.0,0.0,71,0.00,,,0.03,WUHU216HW,2013-11-24 01:29:00,
2013-11-23 19:34:00,12.7,5.1,30.70,NNW,338,0.0,0.0,71,0.00,,,0.03,WUHU216HW,2013-11-24 01:34:00,
2013-11-23 19:39:00,12.5,4.9,30.70,NW,315,0.0,0.0,71,0.00,,,0.03,WUHU216HW,2013-11-24 01:39:00,
2013-11-23 19:44:00,12.3,4.7,30.70,NNW,338,0.0,0.0,71,0.00,,,0.03,WUHU216HW,2013-11-24 01:44:00,
2013-11-23 19:49:00,12.2,4.8,30.70,North,0,0.0,0.0,72,0.00,,,0.03,WUHU216HW,2013-11-24 01:49:00,
2013-11-23 19:54:00,12.2,4.8,30.70,WNW,293,0.0,0.0,72,0.00,,,0.03,WUHU216HW,2013-11-24 01:54:00,
2013-11-23 19:59:00,12.0,4.6,30.71,WNW,293,0.0,0.0,72,0.00,,,0.03,WUHU216HW,2013-11-24 01:59:00,
2013-11-23 20:04:00,12.0,4.6,30.71,NNW,338,0.0,0.0,72,0.00,,,0.03,WUHU216HW,2013-11-24 02:04:00,
2013-11-23 20:09:00,11.8,4.4,30.71,NNW,338,0.0,0.0,72,0.00,,,0.03,WUHU216HW,2013-11-24 02:09:00,
2013-11-23 20:14:00,11.6,4.3,30.70,WNW,293,0.0,0.0,72,0.00,,,0.03,WUHU216HW,2013-11-24 02:14:00,
2013-11-23 20:19:00,11.6,4.3,30.70,NNW,338,0.0,0.0,72,0.00,,,0.03,WUHU216HW,2013-11-24 02:19:00,
2013-11-23 20:24:00,11.6,4.6,30.70,NNW,338,0.0,0.0,73,0.00,,,0.03,WUHU216HW,2013-11-24 02:24:00,
2013-11-23 20:29:00,11.4,4.4,30.70,NNW,338,0.0,0.0,73,0.00,,,0.03,WUHU216HW,2013-11-24 02:29:00,
2013-11-23 20:34:00,11.4,4.4,30.70,NW,315,0.0,0.0,73,0.00,,,0.03,WUHU216HW,2013-11-24 02:34:00,
2013-11-23 20:39:00,11.3,4.2,30.70,WNW,293,0.0,0.0,73,0.00,,,0.03,WUHU216HW,2013-11-24 02:39:00,
2013-11-23 20:44:00,11.1,4.0,30.70,NW,315,0.0,0.0,73,0.00,,,0.03,WUHU216HW,2013-11-24 02:44:00,
2013-11-23 20:49:00,11.1,4.0,30.70,WNW,293,0.0,0.0,73,0.00,,,0.03,WUHU216HW,2013-11-24 02:49:00,
2013-11-23 20:54:00,10.9,3.8,30.70,WNW,293,0.0,0.0,73,0.00,,,0.03,WUHU216HW,2013-11-24 02:54:00,
2013-11-23 20:59:00,10.7,3.7,30.70,North,0,0.0,0.0,73,0.00,,,0.03,WUHU216HW,2013-11-24 02:59:00,
2013-11-23 21:04:00,10.7,3.9,30.71,NNW,338,0.0,0.0,74,0.00,,,0.03,WUHU216HW,2013-11-24 03:04:00,
2013-11-23 21:09:00,10.5,3.8,30.71,NW,315,0.0,0.0,74,0.00,,,0.03,WUHU216HW,2013-11-24 03:09:00,
2013-11-23 21:14:00,10.5,3.8,30.71,NW,315,0.0,0.0,74,0.00,,,0.03,WUHU216HW,2013-11-24 03:14:00,
2013-11-23 21:19:00,10.5,3.8,30.71,NNW,338,0.0,0.0,74,0.00,,,0.03,WUHU216HW,2013-11-24 03:19:00,
2013-11-23 21:24:00,10.2,3.4,30.71,WNW,293,0.0,0.0,74,0.00,,,0.03,WUHU216HW,2013-11-24 03:24:00,
2013-11-23 21:29:00,10.2,3.4,30.71,NNW,338,0.0,0.0,74,0.00,,,0.03,WUHU216HW,2013-11-24 03:29:00,
2013-11-23 21:34:00,10.2,3.4,30.71,NW,315,0.0,0.0,74,0.00,,,0.03,WUHU216HW,2013-11-24 03:34:00,
2013-11-23 21:39:00,10.2,3.7,30.71,North,0,0.0,0.0,75,0.00,,,0.03,WUHU216HW,2013-11-24 03:39:00,
2013-11-23 21:44:00,10.2,3.7,30.71,North,0,0.0,0.0,75,0.00,,,0.03,WUHU216HW,2013-11-24 03:44:00,
2013-11-23 21:49:00,10.2,3.7,30.71,North,0,0.0,0.0,75,0.00,,,0.03,WUHU216HW,2013-11-24 03:49:00,
2013-11-23 21:54:00,10.0,3.5,30.71,NNW,338,0.0,0.0,75,0.00,,,0.03,WUHU216HW,2013-11-24 03:54:00,
2013-11-23 21:59:00,10.0,3.5,30.71,NNW,338,0.0,0.0,75,0.00,,,0.03,WUHU216HW,2013-11-24 03:59:00,
2013-11-23 22:04:00,10.0,3.5,30.70,North,0,0.0,0.0,75,0.00,,,0.03,WUHU216HW,2013-11-24 04:04:00,
2013-11-23 22:09:00,10.0,3.5,30.70,NNW,338,0.0,0.0,75,0.00,,,0.03,WUHU216HW,2013-11-24 04:09:00,
2013-11-23 22:14:00,10.0,3.5,30.70,NW,315,0.0,0.0,75,0.00,,,0.03,WUHU216HW,2013-11-24 04:14:00,
2013-11-23 22:19:00,10.0,3.5,30.70,NNW,338,0.0,0.0,75,0.00,,,0.03,WUHU216HW,2013-11-24 04:19:00,
2013-11-23 22:24:00,10.0,3.5,30.70,NW,315,0.0,0.0,75,0.00,,,0.03,WUHU216HW,2013-11-24 04:24:00,
2013-11-23 22:29:00,10.0,3.5,30.70,NNW,338,0.0,0.0,75,0.00,,,0.03,WUHU216HW,2013-11-24 04:29:00,
2013-11-23 22:34:00,9.6,3.2,30.70,NW,315,0.0,0.0,75,0.00,,,0.03,WUHU216HW,2013-11-24 04:34:00,
2013-11-23 22:39:00,9.6,3.2,30.70,WNW,293,0.0,0.0,75,0.00,,,0.03,WUHU216HW,2013-11-24 04:39:00,
2013-11-23 22:44:00,9.3,2.9,30.70,WNW,293,0.0,0.0,75,0.00,,,0.03,WUHU216HW,2013-11-24 04:44:00,
2013-11-23 22:49:00,9.1,2.7,30.69,WNW,293,0.0,0.0,75,0.00,,,0.03,WUHU216HW,2013-11-24 04:49:00,
2013-11-23 22:54:00,8.9,2.9,30.69,NNW,338,0.0,0.0,76,0.00,,,0.03,WUHU216HW,2013-11-24 04:54:00,
2013-11-23 22:59:00,8.9,2.9,30.69,NNW,338,0.0,0.0,76,0.00,,,0.03,WUHU216HW,2013-11-24 04:59:00,
2013-11-23 23:01:00,8.9,2.9,30.69,NW,315,0.0,0.0,76,0.00,,,0.03,WUHU216HW,2013-11-24 05:01:00,
2013-11-23 23:06:00,8.9,2.9,30.69,NW,315,0.0,0.0,76,0.00,,,0.03,WUHU216HW,2013-11-24 05:06:00,
2013-11-23 23:11:00,8.9,2.9,30.69,NNW,338,0.0,0.0,76,0.00,,,0.03,WUHU216HW,2013-11-24 05:11:00,
2013-11-23 23:16:00,8.9,2.9,30.70,NW,315,0.0,0.0,76,0.00,,,0.03,WUHU216HW,2013-11-24 05:16:00,
2013-11-23 23:21:00,8.9,2.9,30.70,NW,315,0.0,0.0,76,0.00,,,0.03,WUHU216HW,2013-11-24 05:21:00,
2013-11-23 23:26:00,9.1,3.3,30.70,NNW,338,0.0,0.0,77,0.00,,,0.03,WUHU216HW,2013-11-24 05:26:00,
2013-11-23 23:31:00,9.1,3.3,30.70,NNW,338,0.0,0.0,77,0.00,,,0.03,WUHU216HW,2013-11-24 05:31:00,
2013-11-23 23:36:00,9.1,3.3,30.70,NW,315,0.0,0.0,77,0.00,,,0.03,WUHU216HW,2013-11-24 05:36:00,
2013-11-23 23:41:00,9.5,3.6,30.69,NNW,338,0.0,0.0,77,0.00,,,0.03,WUHU216HW,2013-11-24 05:41:00,
2013-11-23 23:46:00,9.5,3.6,30.69,NNW,338,0.0,0.0,77,0.00,,,0.03,WUHU216HW,2013-11-24 05:46:00,
2013-11-23 23:51:00,9.6,3.8,30.69,North,0,0.0,0.0,77,0.00,,,0.03,WUHU216HW,2013-11-24 05:51:00,
2013-11-23 23:57:00,9.6,3.8,30.69,NNE,23,0.0,0.0,77,0.00,,,0.03,WUHU216HW,2013-11-24 05:57:00,